When you browse on this site, cookies collect data to enhance your experience and personalize the content and advertising you see.
Visit our Privacy Policy to learn more. By continuing to use the site, you agree to this use of cookies and data.
  • Em Portugal
  • Lista de países
  • Para 7 dias
  • Temperatura da água
  • Mapas de satélite
  • Mapa do tempo
  • Widgets de tempo
  • user-avatar
    Iniciar Sessão

    Previsão horária em Dzierzgowo

    Hoje, 17 Julho, Quarta-feira

    Tempo Temperatura Precipitação Vento Pressão Humidade
    00:00 +10°C° 0 mm 2 m/s 743 mmHg 90%
    01:00 +12°C° 0 mm 2 m/s 743 mmHg 94%
    02:00 +11°C° 0.5 mm 3 m/s 743 mmHg 95%
    03:00 +11°C° 0.5 mm 3 m/s 742 mmHg 95%
    04:00 +12°C° 0.5 mm 4 m/s 742 mmHg 96%
    05:00 +13°C° 0.2 mm 4 m/s 742 mmHg 91%
    06:00 +13°C° 0.2 mm 5 m/s 742 mmHg 87%
    07:00 +14°C° 0.2 mm 5 m/s 742 mmHg 83%
    08:00 +15°C° 0.1 mm 5 m/s 742 mmHg 79%
    09:00 +16°C° 0.1 mm 5 m/s 743 mmHg 75%
    10:00 +17°C° 0.1 mm 5 m/s 743 mmHg 71%
    11:00 +19°C° 0.5 mm 5 m/s 743 mmHg 69%
    12:00 +19°C° 0.5 mm 6 m/s 743 mmHg 67%
    13:00 +20°C° 0.5 mm 6 m/s 743 mmHg 66%
    14:00 +20°C° 0.1 mm 6 m/s 743 mmHg 64%
    15:00 +20°C° 0.1 mm 6 m/s 743 mmHg 62%
    16:00 +20°C° 0.1 mm 6 m/s 744 mmHg 60%
    17:00 +17°C° 0 mm 5 m/s 744 mmHg 66%
    18:00 +17°C° 0 mm 4 m/s 744 mmHg 71%
    19:00 +14°C° 0 mm 4 m/s 744 mmHg 77%
    20:00 +13°C° 0 mm 4 m/s 744 mmHg 82%
    21:00 +12°C° 0 mm 3 m/s 744 mmHg 88%
    22:00 +10°C° 0 mm 3 m/s 745 mmHg 93%
    23:00 +10°C° 0 mm 3 m/s 745 mmHg 94%

    Amanhã, 18 Julho, Quinta-feira

    Tempo Temperatura Precipitação Vento Pressão Humidade
    00:00 +10°C° 0 mm 3 m/s 745 mmHg 95%
    01:00 +10°C° 0 mm 3 m/s 745 mmHg 96%
    02:00 +10°C° 0 mm 3 m/s 745 mmHg 97%
    03:00 +10°C° 0 mm 3 m/s 745 mmHg 97%
    04:00 +10°C° 0 mm 3 m/s 745 mmHg 97%
    05:00 +11°C° 0 mm 3 m/s 745 mmHg 93%
    06:00 +13°C° 0 mm 3 m/s 745 mmHg 88%
    07:00 +16°C° 0 mm 3 m/s 746 mmHg 84%
    08:00 +17°C° 0 mm 3 m/s 746 mmHg 77%
    09:00 +19°C° 0 mm 3 m/s 746 mmHg 70%
    10:00 +20°C° 0 mm 3 m/s 746 mmHg 63%
    11:00 +21°C° 0 mm 3 m/s 746 mmHg 61%
    12:00 +22°C° 0 mm 3 m/s 746 mmHg 59%
    13:00 +22°C° 0 mm 3 m/s 746 mmHg 56%
    14:00 +22°C° 0.1 mm 3 m/s 746 mmHg 57%
    15:00 +22°C° 0.1 mm 3 m/s 746 mmHg 59%
    16:00 +22°C° 0.1 mm 3 m/s 746 mmHg 60%
    17:00 +21°C° 0.1 mm 3 m/s 746 mmHg 66%
    18:00 +20°C° 0.1 mm 2 m/s 746 mmHg 72%
    19:00 +18°C° 0.1 mm 2 m/s 745 mmHg 78%
    20:00 +17°C° 0 mm 2 m/s 746 mmHg 82%
    21:00 +16°C° 0 mm 1 m/s 746 mmHg 86%
    22:00 +14°C° 0 mm 1 m/s 747 mmHg 90%
    23:00 +14°C° 0 mm 1 m/s 747 mmHg 90%

    Depois de amanhã, 19 Julho, Sexta-feira

    Tempo Temperatura Precipitação Vento Pressão Humidade
    00:00 +13°C° 0 mm 1 m/s 746 mmHg 91%
    01:00 +12°C° 0 mm 0 m/s 746 mmHg 91%
    02:00 +13°C° 0 mm 1 m/s 746 mmHg 91%
    03:00 +13°C° 0 mm 1 m/s 747 mmHg 91%
    04:00 +13°C° 0 mm 1 m/s 747 mmHg 92%
    05:00 +15°C° 0 mm 1 m/s 747 mmHg 87%
    06:00 +16°C° 0 mm 1 m/s 747 mmHg 81%
    07:00 +18°C° 0 mm 2 m/s 747 mmHg 76%
    08:00 +19°C° 0 mm 2 m/s 747 mmHg 70%
    09:00 +21°C° 0 mm 2 m/s 747 mmHg 63%
    10:00 +23°C° 0 mm 2 m/s 747 mmHg 57%
    11:00 +23°C° 0 mm 2 m/s 747 mmHg 55%
    12:00 +24°C° 0 mm 2 m/s 747 mmHg 53%
    13:00 +25°C° 0 mm 2 m/s 747 mmHg 51%
    14:00 +25°C° 0 mm 2 m/s 747 mmHg 50%
    15:00 +25°C° 0 mm 2 m/s 747 mmHg 50%
    16:00 +25°C° 0 mm 1 m/s 746 mmHg 50%
    17:00 +23°C° 0 mm 1 m/s 746 mmHg 55%
    18:00 +22°C° 0 mm 1 m/s 746 mmHg 60%
    19:00 +21°C° 0 mm 1 m/s 746 mmHg 65%
    20:00 +20°C° 0 mm 1 m/s 747 mmHg 67%
    21:00 +19°C° 0 mm 1 m/s 747 mmHg 69%
    22:00 +18°C° 0 mm 1 m/s 747 mmHg 72%
    23:00 +16°C° 0 mm 1 m/s 747 mmHg 75%

    20 Julho, Sábado

    Tempo Temperatura Precipitação Vento Pressão Humidade
    00:00 +16°C° 0 mm 1 m/s 747 mmHg 78%
    01:00 +15°C° 0 mm 1 m/s 747 mmHg 81%
    02:00 +15°C° 0 mm 1 m/s 747 mmHg 81%
    03:00 +15°C° 0 mm 1 m/s 747 mmHg 81%
    04:00 +14°C° 0 mm 1 m/s 747 mmHg 81%
    05:00 +16°C° 0 mm 1 m/s 748 mmHg 76%
    06:00 +19°C° 0 mm 1 m/s 748 mmHg 71%
    07:00 +21°C° 0 mm 1 m/s 748 mmHg 66%
    08:00 +23°C° 0 mm 1 m/s 748 mmHg 61%
    09:00 +24°C° 0 mm 2 m/s 749 mmHg 56%
    10:00 +25°C° 0 mm 2 m/s 749 mmHg 51%
    11:00 +26°C° 0 mm 2 m/s 749 mmHg 49%
    12:00 +26°C° 0 mm 2 m/s 748 mmHg 47%
    13:00 +27°C° 0 mm 2 m/s 748 mmHg 45%
    14:00 +27°C° 0 mm 2 m/s 748 mmHg 45%
    15:00 +27°C° 0 mm 1 m/s 748 mmHg 46%
    16:00 +27°C° 0 mm 1 m/s 748 mmHg 47%
    17:00 +26°C° 0 mm 1 m/s 748 mmHg 52%
    18:00 +24°C° 0 mm 1 m/s 748 mmHg 58%
    19:00 +23°C° 0 mm 1 m/s 749 mmHg 64%
    20:00 +21°C° 0 mm 2 m/s 749 mmHg 68%
    21:00 +19°C° 0 mm 2 m/s 749 mmHg 72%
    22:00 +18°C° 0 mm 3 m/s 749 mmHg 76%
    23:00 +18°C° 0 mm 2 m/s 749 mmHg 79%

    21 Julho, Domingo

    Tempo Temperatura Precipitação Vento Pressão Humidade
    00:00 +17°C° 0 mm 2 m/s 749 mmHg 81%
    01:00 +17°C° 0 mm 2 m/s 749 mmHg 83%
    02:00 +17°C° 0 mm 2 m/s 749 mmHg 84%
    03:00 +17°C° 0 mm 2 m/s 749 mmHg 84%
    04:00 +16°C° 0 mm 2 m/s 749 mmHg 85%
    05:00 +18°C° 0 mm 3 m/s 749 mmHg 82%
    06:00 +19°C° 0 mm 3 m/s 749 mmHg 79%
    07:00 +21°C° 0 mm 3 m/s 749 mmHg 77%
    08:00 +22°C° 0.5 mm 3 m/s 749 mmHg 73%
    09:00 +24°C° 0.5 mm 3 m/s 749 mmHg 70%
    10:00 +26°C° 0.5 mm 3 m/s 749 mmHg 67%
    11:00 +25°C° 1.6 mm 3 m/s 748 mmHg 70%
    12:00 +25°C° 1.6 mm 3 m/s 748 mmHg 73%
    13:00 +24°C° 1.6 mm 3 m/s 748 mmHg 76%
    14:00 +23°C° 0.6 mm 2 m/s 748 mmHg 80%
    15:00 +21°C° 0.6 mm 2 m/s 748 mmHg 84%
    16:00 +20°C° 0.6 mm 2 m/s 748 mmHg 88%
    17:00 +20°C° 0 mm 2 m/s 748 mmHg 88%
    18:00 +19°C° 0 mm 2 m/s 748 mmHg 88%
    19:00 +19°C° 0 mm 2 m/s 748 mmHg 88%
    20:00 +19°C° 0 mm 1 m/s 748 mmHg 89%
    21:00 +19°C° 0 mm 1 m/s 748 mmHg 89%
    22:00 +18°C° 0 mm 1 m/s 748 mmHg 90%
    23:00 +18°C° 0 mm 1 m/s 748 mmHg 91%

    22 Julho, Segunda-feira

    Tempo Temperatura Precipitação Vento Pressão Humidade
    00:00 +15°C° 0 mm 0 m/s 748 mmHg 91%
    01:00 +15°C° 0 mm 0 m/s 748 mmHg 91%
    02:00 +15°C° 0.2 mm 0 m/s 748 mmHg 92%
    03:00 +15°C° 0.2 mm 0 m/s 748 mmHg 92%
    04:00 +16°C° 0.2 mm 1 m/s 748 mmHg 92%
    05:00 +18°C° 0.2 mm 1 m/s 749 mmHg 90%
    06:00 +19°C° 0.2 mm 1 m/s 749 mmHg 88%
    07:00 +19°C° 0.2 mm 2 m/s 749 mmHg 86%
    08:00 +20°C° 0.3 mm 2 m/s 749 mmHg 85%
    09:00 +20°C° 0.3 mm 2 m/s 749 mmHg 84%
    10:00 +21°C° 0.3 mm 2 m/s 750 mmHg 83%
    11:00 +20°C° 0.7 mm 3 m/s 749 mmHg 84%
    12:00 +20°C° 0.7 mm 3 m/s 749 mmHg 85%
    13:00 +20°C° 0.7 mm 3 m/s 749 mmHg 86%
    14:00 +20°C° 0.2 mm 3 m/s 749 mmHg 87%
    15:00 +20°C° 0.2 mm 3 m/s 749 mmHg 88%
    16:00 +19°C° 0.2 mm 3 m/s 749 mmHg 89%
    17:00 +19°C° 0.2 mm 3 m/s 749 mmHg 89%
    18:00 +19°C° 0.2 mm 3 m/s 749 mmHg 90%
    19:00 +19°C° 0.2 mm 3 m/s 749 mmHg 90%
    20:00 +19°C° 0.1 mm 3 m/s 749 mmHg 92%
    21:00 +18°C° 0.1 mm 3 m/s 749 mmHg 93%
    22:00 +18°C° 0.1 mm 4 m/s 749 mmHg 95%
    23:00 +17°C° 0 mm 4 m/s 749 mmHg 94%
    Mostrar mais